This is the latest recevied weather packets stored in our database for station/object NC4J. If no packets are shown the sender has not sent any weather packets the latest 10 day(s).
| Time | Temp. | Humidity | Pressure | Rain* | Wind** | Luminosity | Snow |
|---|---|---|---|---|---|---|---|
| 1777958425 | 10.56° C | 81% | 1016.3 hPa | 0 mm | - | 0 W/m² | - |
| 1777958122 | 10.56° C | 81% | 1016.5 hPa | 0 mm | - | 0 W/m² | - |
| 1777957820 | 10° C | 79% | 1016.5 hPa | 0 mm | - | 0 W/m² | - |
| 1777957518 | 10° C | 81% | 1016.5 hPa | 0 mm | - | 0 W/m² | - |
| 1777957216 | 10° C | 82% | 1016.6 hPa | 0 mm | - | 0 W/m² | - |
| 1777956911 | 10° C | 80% | 1016.5 hPa | 0 mm | - | 0 W/m² | - |
| 1777956609 | 10° C | 80% | 1016.4 hPa | 0 mm | - | 0 W/m² | - |
| 1777956306 | 10° C | 80% | 1016.5 hPa | 0 mm | - | 0 W/m² | - |
| 1777956002 | 10.56° C | 79% | 1016.3 hPa | 0 mm | - | 0 W/m² | - |
| 1777955698 | 10.56° C | 78% | 1016.3 hPa | 0 mm | - | 0 W/m² | - |
| 1777955395 | 10.56° C | 77% | 1016.4 hPa | 0 mm | - | 0 W/m² | - |
| 1777955091 | 11.11° C | 77% | 1016.3 hPa | 0 mm | - | 0 W/m² | - |
| 1777954788 | 11.11° C | 75% | 1016.4 hPa | 0 mm | - | 0 W/m² | - |
| 1777954485 | 11.67° C | 73% | 1016.6 hPa | 0 mm | - | 0 W/m² | - |
| 1777954183 | 11.67° C | 71% | 1016.4 hPa | 0 mm | - | 0 W/m² | - |
| 1777953880 | 12.22° C | 72% | 1016.4 hPa | 0 mm | - | 0 W/m² | - |
| 1777953577 | 12.22° C | 71% | 1016.5 hPa | 0 mm | - | 0 W/m² | - |
| 1777953273 | 12.78° C | 69% | 1016.6 hPa | 0 mm | - | 0 W/m² | - |
| 1777952970 | 12.78° C | 68% | 1016.6 hPa | 0 mm | - | 0 W/m² | - |
| 1777952666 | 12.78° C | 67% | 1016.5 hPa | 0 mm | - | 0 W/m² | - |
| 1777952364 | 13.33° C | 63% | 1016.6 hPa | 0 mm | - | 0 W/m² | - |
| 1777952060 | 13.33° C | 64% | 1016.7 hPa | 0 mm | - | 0 W/m² | - |
| 1777951759 | 13.33° C | 64% | 1016.7 hPa | 0 mm | - | 0 W/m² | - |
| 1777951455 | 13.33° C | 64% | 1016.8 hPa | 0 mm | - | 0 W/m² | - |
| 1777951152 | 13.89° C | 63% | 1016.9 hPa | 0 mm | - | 0 W/m² | - |
* Rain latest hour (hover to see other rain measurements)
** Current wind speed in m/s (hover to see current wind gust speed)